Showing default

CENTISPACE-1 S9, 62578

Orbit data source: Space-Track

CENTISPACE-1 S9, 62578 is a payload satellite owned by Centispace (CN) in LEO that was launched on Mon, 13 Jan 2025 UTC via a JIELONG-3 launch vehicle from the Yellow Sea Launch Area, China (YSLA). Payloads include a variety of satellites, spacecraft, and rockets equipped with specific instruments for various scientific and technological missions. These include communications satellites like Starlink; space stations such as the ISS; scientific satellites like the Hubble; Earth observation satellites from companies like Planet Labs, Umbra, and HawkEye 360; GPS; miniature CubeSats for education and research; and military/defense satellites.

Loading next visibility...
CENTISPACE-1 S9 details
Identifier
62578, 2025-007D
Orbit
LEO
Last TLE update8 hours ago
Origin
Flag of CNCentispace (CN / PRC)
ManufacturerDFH Shenzhen
MissionOperational spacecraft
Bus & MotorWK01, Unknown motor
Mass160 kg wet, 160 kg dry
Launch date (UTC)
2025-01-13 (1 month ago)
Launch vehicle
JIELONG-3
Launch site
Yellow Sea Launch Area, China (YSLA)
Object type
Payload
Rocket body
Debris
Shape & HBRUnknown
Radar Cross SectionMedium (>0.1 m² and <1 m²)

Expand to show TLE details & history

TLE from 8 hours ago
0 CENTISPACE-1 S9
1 62578U 25007D   25047.15804364  .00005033  00000-0  73790-3 0  9991
2 62578  54.9831 349.0684 0017603  26.1101 334.0783 14.76914577  5028
Epoch: 2025-02-16T03:47Z
Definitive object data (Epoch: 2025-02-16T03:47:34.97Z)
Latitude-0.00005°
Longitude145.77754°
Altitude629.043 km
Speed7.551 km/s
True Right ascension23h 16m 16s
True Declination0° 00' 00"
Sunlit
Object was in daylight at TLE epoch
Visualization TLE readout
Latitude-51.94594°
Longitude81.54931°
Altitude659.522 km
Speed7.526 km/s
Apparent Right ascension23h 00m 02s
Apparent Declination-61° 07' 08"
Sunlit
Object is in daylight
Visualization observer readout
Local Sidereal Time14:21:20
Azimuth141.878° SSE
Elevation-52.974°
Doppler factor1
Orbital elements
Apogee altitude651.399 km
Perigee altitude626.694 km
Semi-major axis7,017.183 km
Eccentricity0.0017603
Inclination54.9831°
RAAN349.0684°
Arg. of periapsis26.1101°
True anomaly333.98995°
Mean anomaly334.0783°
Eccentric anomaly334.03414°
Mean motion3.69232 °/min
BSTAR0.0007379
Orbital period97.5 mins
Loading maneuver chart data...
Loading historical data...
Loading historical data...
Loading historical data...
Loading historical data...
Loading historical data...
Loading historical data...
Loading historical data...

CENTISPACE-1 S9 Visibility forecast

Observer location: undefined°, undefined

Span
Click to sort rows by Start time (UTC) header in descending order
Start Az.
Max El. time (UTC)
Max El. Az.
Max El.
End time (UTC)
End Az.
8 mins2025-02-16 21:47:57.171Z194.022° SSW2025-02-16 21:51:57.171Z125.558° SE30.767°2025-02-16 21:55:57.171Z62.596° ENE
6 mins2025-02-16 23:30:57.171Z274.24° WNW2025-02-16 23:32:57.171Z318.06° NNW30.693°2025-02-16 23:36:57.171Z31.452° NE
6 mins2025-02-17 04:38:57.171Z341.475° N2025-02-17 04:40:57.171Z18.97° NNE27.836°2025-02-17 04:44:57.171Z92.318° ESE
7 mins2025-02-17 06:19:57.171Z294.041° NW2025-02-17 06:22:57.171Z228.302° WSW35.219°2025-02-17 06:26:57.171Z159.187° S
|